DW7002 Weather Reports


time (UTC)temp
C
wind
direction
speed
KPH
gust
KPH
rain 1hr
cm
rain 24hr
cm
rain mn
cm
humidity
%
barometer
mb
20260906111123 22 89 0.0 0.0 0.00 0.00 0.00 96 1015.0
20260906110116 22 89 0.0 0.0 0.00 0.00 0.00 96 1014.8
20260906105146 22 89 0.0 0.0 0.00 0.00 0.00 96 1014.7
20260906104140 22 89 0.0 0.0 0.00 0.00 0.00 96 1014.7
20260906103117 22 89 0.0 0.0 0.00 0.00 0.00 96 1014.7
20260906102131 22 89 0.0 0.0 0.00 0.00 0.00 96 1014.4
20260906101124 22 89 0.0 0.0 0.00 0.00 0.00 96 1014.1
20260906100120 22 89 0.0 0.0 0.00 0.00 0.00 96 1014.2
20260906095131 22 89 0.0 0.0 0.00 0.00 0.00 96 1014.1
20260906094126 22 89 0.0 0.0 0.00 0.00 0.00 96 1014.0
20260906093119 22 89 0.0 0.0 0.00 0.00 0.00 96 1013.9
20260906092116 22 89 0.0 0.0 0.00 0.00 0.00 96 1013.9
20260906091129 22 89 0.0 0.0 0.00 0.00 0.00 96 1013.8
20260906090121 22 89 0.0 0.0 0.00 0.00 0.00 97 1013.7
20260906085116 21 89 0.0 0.0 0.00 0.00 0.00 97 1013.6
20260906084129 21 89 0.0 0.0 0.00 0.00 0.00 96 1013.4
20260906083122 21 89 0.0 0.0 0.00 0.00 0.00 97 1013.1
20260906082135 21 89 0.0 0.0 0.00 0.00 0.00 96 1013.0
20260906081151 21 89 0.0 0.0 0.00 0.00 0.00 95 1013.0
20260906080144 21 89 0.0 0.0 0.00 0.00 0.00 95 1013.1
20260906075134 21 89 0.0 0.0 0.00 0.00 0.00 95 1013.1
20260906074125 21 89 0.0 0.0 0.00 0.00 0.00 95 1013.0
20260906073123 21 89 0.0 0.0 0.00 0.00 0.00 95 1013.0
20260906072117 21 89 0.0 0.0 0.00 0.00 0.00 95 1013.0
20260906071131 21 89 0.0 0.0 0.00 0.00 0.00 94 1013.0
20260906070125 21 89 0.0 0.0 0.00 0.00 0.00 94 1013.0
20260906065119 21 89 0.0 0.0 0.00 0.00 0.00 94 1013.2
20260906064132 21 89 0.0 0.0 0.00 0.00 0.00 94 1013.3
20260906063126 21 89 0.0 0.0 0.00 0.00 0.00 94 1013.4
20260906062144 21 90 0.0 0.0 0.00 0.00 0.00 94 1013.3
20260906061117 21 90 0.0 0.0 0.00 0.00 0.00 94 1013.4
20260906060131 21 90 0.0 0.0 0.00 0.00 0.00 94 1013.5
20260906055122 21 90 0.0 0.0 0.00 0.00 0.00 94 1013.5
20260906054119 21 90 0.0 0.0 0.00 0.00 0.00 94 1013.5
20260906053132 21 90 0.0 0.0 0.00 0.00 0.00 94 1013.7
20260906052125 21 90 0.0 0.0 0.00 0.00 0.00 94 1013.7
20260906051122 21 90 0.0 0.0 0.00 0.00 0.00 94 1013.8
20260906050135 21 90 0.0 0.0 0.00 0.00 0.00 94 1013.9
20260906045126 21 90 0.0 0.0 0.00 0.00 0.00 94 1014.1
20260906044119 21 90 0.0 0.0 0.00 0.00 0.00 94 1014.1
20260906043118 21 90 0.0 0.0 0.00 0.00 0.00 93 1014.3
20260906042131 21 90 0.0 0.0 0.00 0.00 0.00 93 1014.2
20260906041123 22 90 0.0 0.0 0.00 0.00 0.00 93 1014.2
20260906040138 22 90 0.0 0.0 0.00 0.00 0.00 93 1014.3
20260906035132 22 90 0.0 0.0 0.00 0.00 0.00 93 1014.3
20260906034125 22 90 0.0 0.0 0.00 0.00 0.00 93 1014.2
20260906033118 22 90 0.0 0.0 0.00 0.00 0.00 93 1014.3
20260906032117 22 90 0.0 0.0 0.00 0.00 0.00 93 1014.2
20260906031130 22 90 0.0 0.0 0.00 0.00 0.00 93 1014.3
20260906030124 22 90 0.0 0.0 0.00 0.00 0.00 93 1014.1
20260906025116 22 90 0.0 0.0 0.00 0.00 0.00 93 1014.3
20260906024133 22 90 0.0 0.0 0.00 0.00 0.00 93 1014.0
20260906023125 22 90 0.0 0.0 0.00 0.00 0.00 92 1014.0
20260906022119 22 90 0.0 0.0 0.00 0.00 0.00 92 1014.0
20260906021117 22 90 0.0 3.2 0.00 0.00 0.00 92 1014.0
20260906020130 22 285 0.0 0.0 0.00 0.00 0.00 91 1013.4
20260906015121 23 285 0.0 0.0 0.00 0.00 0.00 91 1013.3
20260906014114 23 285 0.0 0.0 0.00 0.00 0.00 91 1013.2
20260906013131 23 285 0.0 0.0 0.00 0.00 0.00 90 1013.4
20260906012146 23 285 0.0 0.0 0.00 0.00 0.00 91 1013.4
20260906011117 23 285 0.0 0.0 0.00 0.00 0.00 90 1013.1
20260906010129 23 285 0.0 0.0 0.00 0.00 0.00 90 1013.0
20260906005124 23 285 0.0 1.6 0.00 0.00 0.00 89 1013.1
20260906004117 23 285 0.0 0.0 0.00 0.00 0.00 90 1013.0
20260906003130 23 285 0.0 0.0 0.00 0.00 0.00 89 1013.0
20260906002144 23 285 0.0 0.0 0.00 0.00 0.00 89 1012.9
20260906001119 24 285 0.0 0.0 0.00 0.00 0.00 88 1012.8
20260906000152 24 285 0.0 0.0 0.00 0.00 0.00 87 1012.8
20260905235121 24 285 0.0 0.0 0.00 0.00 0.00 87 1012.6
20260905234118 25 285 0.0 1.6 0.00 0.00 0.00 86 1012.5
20260905233133 25 285 0.0 1.6 0.00 0.00 0.00 86 1012.4
20260905232127 25 285 0.0 1.6 0.00 0.00 0.00 85 1012.5
20260905231121 25 286 0.0 1.6 0.00 0.00 0.00 84 1012.5
20260905230117 25 286 0.0 3.2 0.00 0.25 0.00 84 1012.3
20260905225129 25 283 0.0 0.0 0.00 0.25 0.00 85 1012.2
20260905224121 25 283 0.0 1.6 0.00 0.25 0.00 84 1012.2
20260905223154 25 283 0.0 1.6 0.00 0.25 0.00 84 1012.4
20260905222131 25 285 0.0 1.6 0.00 0.25 0.00 84 1012.4
20260905221125 26 285 0.0 1.6 0.00 0.25 0.00 85 1012.5
20260905220117 26 279 1.6 3.2 0.00 0.25 0.00 85 1012.6
20260905215133 26 260 0.0 1.6 0.00 0.25 0.00 86 1012.6
20260905214127 26 278 0.0 6.4 0.00 0.25 0.00 86 1012.8
20260905213120 26 254 1.6 3.2 0.00 0.25 0.00 87 1012.9
20260905212132 25 246 0.0 1.6 0.00 0.25 0.00 91 1013.1
20260905211130 24 234 0.0 1.6 0.00 0.25 0.00 93 1013.2
20260905210125 23 232 0.0 0.0 0.00 0.25 0.00 92 1012.8
20260905205116 23 226 0.0 0.0 0.00 0.25 0.00 93 1012.7
20260905204134 23 226 0.0 0.0 0.00 0.25 0.00 92 1012.6
20260905203125 23 226 0.0 0.0 0.00 0.25 0.00 92 1012.9
20260905202119 23 227 0.0 1.6 0.00 0.25 0.00 92 1012.6
20260905201133 23 212 0.0 1.6 0.00 0.25 0.00 91 1013.0
20260905200130 23 210 0.0 1.6 0.00 0.25 0.00 90 1013.0
20260905195120 23 163 0.0 0.0 0.00 0.25 0.00 89 1012.9
20260905194153 24 161 0.0 1.6 0.00 0.25 0.00 86 1012.6
20260905193126 24 195 0.0 3.2 0.00 0.25 0.00 86 1012.7
20260905192124 25 5 0.0 1.6 0.00 0.25 0.00 83 1013.0
20260905191118 26 27 0.0 1.6 0.00 0.25 0.00 77 1013.4
20260905190130 27 27 1.6 8.0 0.00 0.25 0.00 71 1013.3
20260905185126 29 28 6.4 11.3 0.00 0.25 0.00 67 1013.0
20260905184120 32 35 6.4 9.7 0.00 0.25 0.00 72 1012.7
20260905183131 32 193 0.0 3.2 0.00 0.25 0.00 68 1012.4
20260905182125 33 219 0.0 1.6 0.00 0.25 0.00 66 1012.4
20260905181122 33 219 0.0 0.0 0.00 0.25 0.00 66 1012.6
20260905180114 33 219 0.0 0.0 0.00 0.25 0.00 65 1012.8
20260905175125 34 219 0.0 0.0 0.00 0.25 0.00 66 1013.1
20260905174122 34 219 0.0 3.2 0.00 0.25 0.00 62 1013.1
20260905173134 33 246 0.0 1.6 0.00 0.25 0.00 66 1013.5
20260905172127 33 223 0.0 0.0 0.00 0.25 0.00 66 1013.9
20260905171121 33 223 0.0 1.6 0.00 0.25 0.00 65 1014.0
20260905170118 33 198 0.0 3.2 0.00 0.25 0.00 63 1014.1
20260905165130 33 257 0.0 6.4 0.00 0.25 0.00 63 1014.3
20260905164143 33 186 0.0 1.6 0.00 0.25 0.00 62 1014.4
20260905163119 32 255 0.0 6.4 0.00 0.25 0.00 65 1014.4
20260905162132 32 253 0.0 3.2 0.00 0.25 0.00 68 1014.5
20260905161146 32 252 0.0 3.2 0.00 0.25 0.00 67 1014.6
20260905160138 32 240 0.0 3.2 0.00 0.25 0.00 71 1014.7
20260905155129 32 246 0.0 3.2 0.00 0.25 0.00 69 1014.9
20260905154127 31 257 0.0 6.4 0.00 0.25 0.00 68 1014.9
20260905153121 31 251 0.0 6.4 0.00 0.25 0.00 68 1015.1
20260905152115 31 250 0.0 3.2 0.00 0.25 0.00 72 1015.0
20260905151132 30 269 0.0 3.2 0.00 0.25 0.00 74 1015.2
20260905150125 30 270 0.0 3.2 0.00 0.25 0.00 74 1015.2
20260905145136 30 263 0.0 3.2 0.00 0.25 0.00 75 1015.3
20260905144130 29 261 1.6 6.4 0.00 0.25 0.00 76 1015.3
20260905143127 28 269 0.0 1.6 0.00 0.25 0.00 78 1015.3
20260905142121 28 269 0.0 1.6 0.00 0.25 0.00 79 1015.3
20260905141114 28 269 0.0 1.6 0.00 0.25 0.00 78 1015.1
20260905140130 27 264 0.0 1.6 0.00 0.25 0.00 80 1015.2
20260905135120 27 282 0.0 1.6 0.00 0.25 0.00 81 1015.2
20260905134114 27 284 0.0 1.6 0.00 0.25 0.00 83 1015.1
20260905133128 26 221 0.0 1.6 0.00 0.25 0.00 83 1015.1
20260905132126 26 286 0.0 3.2 0.00 0.25 0.00 85 1015.2
20260905131118 25 288 0.0 3.2 0.00 0.25 0.00 87 1015.3
20260905130152 24 232 0.0 0.0 0.00 0.25 0.00 90 1015.3
20260905125122 23 232 0.0 0.0 0.00 0.25 0.00 92 1015.3
20260905124118 23 232 0.0 0.0 0.00 0.25 0.00 93 1015.4
20260905123131 22 232 0.0 0.0 0.00 0.25 0.00 94 1015.5
20260905122123 22 223 0.0 0.0 0.00 0.25 0.00 95 1015.4
20260905121120 22 213 0.0 0.0 0.00 0.25 0.00 96 1015.4
20260905120131 21 213 0.0 0.0 0.00 0.25 0.00 96 1015.3
20260905115123 21 213 0.0 0.0 0.00 0.25 0.00 95 1015.2
20260905114116 21 213 0.0 0.0 0.00 0.25 0.00 95 1014.9
20260905113115 21 211 0.0 0.0 0.00 0.25 0.00 95 1014.7
20260905112128 21 211 0.0 0.0 0.00 0.25 0.00 95 1014.7